Warning: Javascript must be enabled to use all the features on this page!


Page Loading - Please Wait...

* We've detected you're using a mobile device. Find our Next Generation Station Page here.
Click to hideNews Bulletins

Peak Streamflow for the Nation

USGS 02131472 HANGING ROCK CREEK NR KERSHAW, SC

Lancaster County, South Carolina
Hydrologic Unit Code 03040202
Latitude  34°30'58", Longitude  80°34'59" NAD27
Drainage area 24.6  square miles
Gage datum 340.94 feet above NAVD88
Output formats
Table
Graph
Tab-separated file
peakfq (watstore) format
Reselect output format
Water
Year
Date Gage
Height
(feet)
Stream-
flow
(cfs)
1981 1981-02-11 6.70 4401
1982 1982-06-04 7.21 551
1983 1983-03-17 9.19 1,570
1984 1984-02-14 8.11 863
1985 1985-08-18 9.43 1,800
1986 1985-11-21 9.155 8001,2
1987 1987-01-19 8.29 950
1988 1988-08-29 6.67 434
1989 1989-09-22 8.42 1,020
1990 1989-10-02 9.64 2,030
1991 1990-10-10 10.69 3,760
1992 1992-04-21 5.95 333
1993 1993-01-08 7.70 699
1994 1994-08-16 7.62 671
1995 1994-12-23 9.16 1,540
1996 1995-10-04 6.91 480
1997 1997-07-24 8.72 1,200
1998 1998-03-19 8.55 1,090
1999 1998-10-08 7.09 520
2000 2000-09-03 4.92 218
2001 2001-07-13 3.12 99.0
2002 2002-08-26 3.79 133
2003 2003-03-20 8.02 822
2004 2004-09-08 8.54 1,080
2005 2005-03-28 6.69 436
2006 2005-10-07 13.58 2,5008
2008 2008-08-27 7.83 7477
2009 2008-12-11 6.96 490
2010 2009-12-25 8.74 1,210
2011 2011-02-28 2.87 81.0
2012 2012-08-17 6.53 406
2013 2013-08-17 5.71 301
2014 2014-01-12 6.45 394
2015 2015-01-12 7.52 637
2016 2015-11-19 8.21 911
2018 2018-09-16 6.55 420
2019 2019-03-03 7.65 525
2020 2020-02-07 8.82 634
2021 2021-01-03 7.27 482
2022 2022-04-05 4.16 222
2023 2023-02-12 4.87 2762
?
  Peak Gage-Height Qualification Codes.
?
  Peak Streamflow Qualification Codes.